Regional Weather Roundup
Issued by NWS

Home | Current Version | Previous Version | Graphics & Text | Print | Product List | Glossary On
Versions: 1 2 3 4 5 6 7 8 9 10 11 12 13 14 15 16 17 18 19 20 21 22 23 24 25 26 27 28 29 30 31 32 33 34 35 36 37 38 39 40 41 42 43 44 45 46 47 48 49 50
000
ASUS45 KCYS 312210
RWRWY

WYOMING REGIONAL WEATHER ROUNDUP
NATIONAL WEATHER SERVICE CHEYENNE WY
400 PM MDT FRI JUL 31 2015

NOTE:  "FAIR" INDICATES FEW OR NO CLOUDS BELOW 12,000 FEET
WITH NO SIGNIFICANT WEATHER AND/OR OBSTRUCTIONS TO VISIBILITY.

WYZ001-312300-
YELLOWSTONE NATIONAL PARK

CITY           SKY/WX    TMP DP  RH WIND       PRES   REMARKS
LK YELLOWSTONE   N/A     75  34  22 VRB3      30.46F
W YELLOWSTONE  NOT AVBL

$$
WYZ002>013-054>058-071-098>099-312300-
NORTHERN WYOMING

CITY           SKY/WX    TMP DP  RH WIND       PRES   REMARKS
JACKSON        SUNNY     82  32  16 SW9       30.34F
CODY           FAIR      88  34  14 E7        30.20F
GREYBULL       FAIR      93  25   8 VRB3      30.11F
WORLAND        FAIR      95  27   9 N7        30.13F
SHERIDAN       FAIR      93  36  13 W5        30.13F
BUFFALO        FAIR      90  36  14 VRB5      30.20F
GILLETTE       FAIR      90  38  16 CALM      30.16F
HULETT         FAIR      88  46  23 NE12      30.19F
NEWCASTLE      FAIR      90  34  13 S7G16     30.17F

$$
WYZ014>020-022>026-101>103-312300-
CENTRAL WYOMING

CITY           SKY/WX    TMP DP  RH WIND       PRES   REMARKS
BIG PINEY      FAIR      83  18   9 CALM      30.36F
PINEDALE       FAIR      81  18   9 NW3       30.37F
DUBOIS         FAIR      82  23  11 NW16      30.35F
LANDER         FAIR      89  31  12 N9        30.20F
RIVERTON       FAIR      90  26  10 VRB3      30.22F
CASPER         FAIR      92  26   9 NW14G20   30.20F
DOUGLAS        FAIR      92  30  11 VRB3      30.20F

$$
WYZ021-027>030-104>119-312300-
SOUTHERN WYOMING

CITY           SKY/WX    TMP DP  RH WIND       PRES   REMARKS
EVANSTON       FAIR      84  19   9 N10G18    30.37F
KEMMERER       FAIR      82  19   9 SW14G22   30.40F
FORT BRIDGER   CLEAR     86  19   8 CALM      30.38F
ROCK SPRINGS   FAIR      84  19   9 CALM      30.31F
DIXON          FAIR      89  25   9 CALM      30.31F
RAWLINS        FAIR      88  20   8 W9        30.32F
SARATOGA       FAIR      86  21   9 N5        30.34F
LARAMIE        FAIR      81  45  28 SE16G22   30.36F
CHEYENNE       FAIR      77  52  41 E12       30.32F
TORRINGTON     FAIR      87  48  25 S25G33    30.17F
PINE BLUFFS    MOCLDY    72  54  53 N12       30.29F

$$


USA.gov is the U.S. government's official web portal to all federal, state and local government web resources and services.